Погода в Вирджиния-Бич

США     36˚50′59″N   75˚58′37″W
темп.,
°C
ветер,
м/с
пор.,
м/с
влажн.,
%
обл.,
%
осадки,
мм/ч
давл.,
гПа
погр.,
м
15 января, пт
пт1501:00+5˚ююз22690 0.0 101230
04:00+5˚ю12820 0.0 101236
07:00+5˚ююв348517 0.0 1012114
10:00+9˚ю367165 0.0 1012332
13:00+12˚ю596333 0.0 1009907
16:00+12˚ююв386716 0.0 1007890
19:00+10˚ю247824 0.0 100799
22:00+10˚зюз31092100 0.4 1006421
16 января, сб
сб1601:00+9˚зсз51093100 4.9 1003580
04:00+8˚юз2588100 4.5 1002324
07:00+6˚зюз4109051 4.5 1004414
10:00+8˚зюз58750 0.0 1004703
13:00+9˚юз712470 0.0 10021873
16:00+7˚зюз7125783 0.1 10021741
19:00+5˚зюз6126882 0.1 10051172
22:00+5˚з612640 0.0 1007985
17 января, вс
вс1701:00+3˚з612650 0.0 1009776
04:00+2˚зюз511690 0.0 1009597
07:00+1˚зюз512700 0.0 1011519
10:00+5˚зюз59570 0.0 1011646
13:00+8˚зюз69480 0.0 10111269
16:00+8˚юз58510 0.0 10091117
19:00+6˚юз5106349 0.0 1010687
22:00+5˚юз41167100 0.0 1010540
18 января, пн
пн1801:00+3˚зюз497955 0.0 1010369
04:00+3˚зюз388051 0.0 1010387
07:00+2˚зюз497873 0.0 1012389
10:00+5˚з711520 0.0 10131111
13:00+7˚з712430 0.0 10131971
16:00+7˚з6104967 0.0 10141775
19:00+4˚з4105543 0.0 1018775
22:00+3˚з410580 0.0 1020486
19 января, вт
вт1901:00+2˚зсз36620 0.0 1022315
04:00+1˚з35690 0.0 1023201
07:00з35710 0.0 1025203
10:00+4˚з36540 0.0 1026486
13:00+8˚з47450 0.0 1024804
16:00+9˚зюз36510 0.0 1023795
19:00+5˚юз35700 0.0 1023154
22:00+6˚юз41264100 0.0 1022515